Time,TemperatureF,DewpointF,PressureIn,WindDirection,WindDirectionDegrees,WindSpeedMPH,WindSpeedGustMPH,Humidity,HourlyPrecipIn,Conditions,Clouds,dailyrainin,SoftwareType,DateUTC
2013-08-12 00:02:00,79.0,78.0,30.06,East,101,1.0,2.0,96,0.00,,,0.74,,2013-08-12 04:02:00,
2013-08-12 00:12:00,80.0,79.0,30.06,ESE,117,0.0,2.0,96,0.00,,,0.74,,2013-08-12 04:12:00,
2013-08-12 00:22:00,80.0,79.0,30.06,SE,135,1.0,2.0,96,0.00,,,0.74,,2013-08-12 04:22:00,
2013-08-12 00:33:00,80.0,79.0,30.06,NW,323,0.0,2.0,96,0.00,,,0.74,,2013-08-12 04:33:00,
2013-08-12 00:43:00,80.0,79.0,30.05,NW,312,1.0,4.0,96,0.00,,,0.74,,2013-08-12 04:43:00,
2013-08-12 00:52:00,80.0,79.0,30.05,East,87,1.0,2.0,96,0.00,,,0.74,,2013-08-12 04:52:00,
2013-08-12 01:02:00,80.0,79.0,30.04,NE,43,1.0,4.0,96,0.00,,,0.74,,2013-08-12 05:02:00,
2013-08-12 01:22:00,80.0,78.0,30.05,West,277,1.0,3.0,95,0.00,,,0.74,,2013-08-12 05:22:00,
2013-08-12 01:32:00,80.0,78.0,30.04,West,267,1.0,4.0,95,0.00,,,0.74,,2013-08-12 05:32:00,
2013-08-12 01:43:00,80.0,78.0,30.04,NNE,27,1.0,4.0,95,0.00,,,0.74,,2013-08-12 05:43:00,
2013-08-12 01:52:00,80.0,78.0,30.04,ENE,68,2.0,4.0,94,0.00,,,0.74,,2013-08-12 05:52:00,
2013-08-12 02:02:00,80.0,78.0,30.04,SW,236,1.0,3.0,94,0.00,,,0.74,,2013-08-12 06:02:00,
2013-08-12 02:11:00,80.0,78.0,30.04,WNW,287,2.0,4.0,94,0.00,,,0.74,,2013-08-12 06:11:00,
2013-08-12 02:22:00,80.0,78.0,30.04,NNE,18,0.0,3.0,93,0.00,,,0.74,,2013-08-12 06:22:00,
2013-08-12 02:32:00,80.0,78.0,30.04,NNW,347,0.0,1.0,93,0.00,,,0.74,,2013-08-12 06:32:00,
2013-08-12 02:42:00,80.0,78.0,30.04,NNW,347,0.0,0.0,93,0.00,,,0.74,,2013-08-12 06:42:00,
2013-08-12 02:52:00,80.0,78.0,30.04,NNW,347,1.0,1.0,94,0.00,,,0.74,,2013-08-12 06:52:00,
2013-08-12 03:01:00,80.0,78.0,30.05,NW,309,0.0,1.0,94,0.00,,,0.74,,2013-08-12 07:01:00,
2013-08-12 03:12:00,79.0,77.0,30.05,NNW,332,0.0,1.0,94,0.00,,,0.74,,2013-08-12 07:12:00,
2013-08-12 03:22:00,79.0,77.0,30.05,NNW,332,0.0,0.0,94,0.00,,,0.74,,2013-08-12 07:22:00,
2013-08-12 03:33:00,79.0,77.0,30.04,NNW,332,0.0,0.0,94,0.00,,,0.74,,2013-08-12 07:33:00,
2013-08-12 03:43:00,79.0,77.0,30.04,North,349,0.0,1.0,94,0.00,,,0.74,,2013-08-12 07:43:00,
2013-08-12 03:52:00,78.0,76.0,30.03,SSE,159,0.0,1.0,93,0.00,,,0.74,,2013-08-12 07:52:00,
2013-08-12 04:02:00,78.0,76.0,30.03,SSE,158,0.0,1.0,93,0.00,,,0.74,,2013-08-12 08:02:00,
2013-08-12 04:12:00,77.0,75.0,30.02,SSE,160,0.0,0.0,94,0.00,,,0.74,,2013-08-12 08:12:00,
2013-08-12 04:22:00,77.0,75.0,30.02,SSE,159,0.0,0.0,94,0.00,,,0.74,,2013-08-12 08:22:00,
2013-08-12 04:33:00,77.0,75.0,30.02,SSE,159,0.0,0.0,94,0.00,,,0.74,,2013-08-12 08:33:00,
2013-08-12 04:43:00,76.0,74.0,30.01,SSE,159,0.0,0.0,95,0.00,,,0.74,,2013-08-12 08:43:00,
2013-08-12 04:53:00,76.0,74.0,30.01,SSE,159,0.0,0.0,95,0.00,,,0.74,,2013-08-12 08:53:00,
2013-08-12 05:02:00,76.0,75.0,30.01,SSE,159,0.0,0.0,96,0.00,,,0.74,,2013-08-12 09:02:00,
2013-08-12 05:22:00,76.0,75.0,30.01,SSE,152,0.0,0.0,96,0.00,,,0.74,,2013-08-12 09:22:00,
2013-08-12 05:32:00,76.0,75.0,30.01,SSE,151,0.0,0.0,96,0.00,,,0.74,,2013-08-12 09:32:00,
2013-08-12 05:43:00,76.0,75.0,30.01,SSE,152,0.0,0.0,96,0.00,,,0.74,,2013-08-12 09:43:00,
2013-08-12 05:53:00,76.0,75.0,30.01,SE,141,0.0,1.0,96,0.00,,,0.74,,2013-08-12 09:53:00,
2013-08-12 06:02:00,75.0,74.0,30.01,SE,141,0.0,0.0,96,0.00,,,0.74,,2013-08-12 10:02:00,
2013-08-12 06:12:00,75.0,74.0,30.01,SE,141,0.0,0.0,96,0.00,,,0.74,,2013-08-12 10:12:00,
2013-08-12 06:22:00,75.0,74.0,30.01,SE,141,0.0,0.0,96,0.00,,,0.74,,2013-08-12 10:22:00,
2013-08-12 06:32:00,75.0,74.0,30.01,SE,141,0.0,0.0,97,0.00,,,0.74,,2013-08-12 10:32:00,
2013-08-12 06:43:00,75.0,74.0,30.01,SE,141,0.0,0.0,97,0.00,,,0.74,,2013-08-12 10:43:00,
2013-08-12 06:52:00,75.0,74.0,30.01,SE,141,0.0,0.0,97,0.00,,,0.74,,2013-08-12 10:52:00,
2013-08-12 07:02:00,75.0,74.0,30.01,SE,141,0.0,0.0,97,0.00,,,0.74,,2013-08-12 11:02:00,
2013-08-12 07:12:00,75.0,74.0,30.02,SE,141,0.0,0.0,97,0.00,,,0.74,,2013-08-12 11:12:00,
2013-08-12 07:22:00,75.0,74.0,30.02,SE,141,0.0,0.0,97,0.00,,,0.74,,2013-08-12 11:22:00,
2013-08-12 07:32:00,76.0,75.0,30.02,SE,141,0.0,0.0,97,0.00,,,0.74,,2013-08-12 11:32:00,
2013-08-12 07:42:00,76.0,75.0,30.02,NW,309,0.0,2.0,97,0.00,,,0.74,,2013-08-12 11:42:00,
2013-08-12 07:52:00,77.0,76.0,30.02,NW,309,0.0,1.0,97,0.00,,,0.74,,2013-08-12 11:52:00,
2013-08-12 08:02:00,78.0,77.0,30.02,SW,232,1.0,1.0,97,0.00,,,0.74,,2013-08-12 12:02:00,
2013-08-12 08:12:00,78.0,77.0,30.02,NNW,330,1.0,2.0,97,0.00,,,0.74,,2013-08-12 12:12:00,
2013-08-12 08:22:00,80.0,78.0,30.03,West,280,1.0,2.0,95,0.00,,,0.74,,2013-08-12 12:22:00,
2013-08-12 08:32:00,81.0,79.0,30.02,WNW,295,0.0,1.0,93,0.00,,,0.74,,2013-08-12 12:32:00,
2013-08-12 08:43:00,82.0,79.0,30.03,West,266,1.0,2.0,90,0.00,,,0.74,,2013-08-12 12:43:00,
2013-08-12 08:52:00,82.0,78.0,30.03,WNW,291,1.0,4.0,88,0.00,,,0.74,,2013-08-12 12:52:00,
2013-08-12 09:02:00,83.0,79.0,30.03,WSW,256,1.0,5.0,88,0.00,,,0.74,,2013-08-12 13:02:00,
2013-08-12 09:11:00,84.0,80.0,30.03,WSW,249,1.0,3.0,87,0.00,,,0.74,,2013-08-12 13:11:00,
2013-08-12 09:43:00,86.0,80.0,30.02,SW,235,0.0,1.0,82,0.00,,,0.74,,2013-08-12 13:43:00,
2013-08-12 09:53:00,87.0,80.0,30.02,West,262,1.0,3.0,79,0.00,,,0.74,,2013-08-12 13:53:00,
2013-08-12 10:02:00,88.0,81.0,30.02,ENE,61,1.0,2.0,79,0.00,,,0.74,,2013-08-12 14:02:00,
2013-08-12 10:11:00,88.0,80.0,30.02,NNW,334,1.0,3.0,77,0.00,,,0.74,,2013-08-12 14:11:00,
2013-08-12 10:32:00,89.0,80.0,30.01,WNW,297,1.0,2.0,76,0.00,,,0.74,,2013-08-12 14:32:00,
2013-08-12 10:42:00,90.0,80.0,30.01,West,264,1.0,3.0,73,0.00,,,0.74,,2013-08-12 14:42:00,
2013-08-12 10:52:00,90.0,80.0,30.01,NNW,346,2.0,6.0,72,0.00,,,0.74,,2013-08-12 14:52:00,
2013-08-12 11:22:00,91.0,79.0,30.01,SSW,205,2.0,4.0,69,0.00,,,0.74,,2013-08-12 15:22:00,
2013-08-12 11:33:00,91.0,80.0,30.01,NNW,340,2.0,5.0,70,0.00,,,0.74,,2013-08-12 15:33:00,
2013-08-12 11:43:00,91.0,82.0,30.01,NW,308,0.0,2.0,75,0.00,,,0.74,,2013-08-12 15:43:00,
2013-08-12 11:52:00,91.0,82.0,30.01,SSE,164,2.0,4.0,74,0.00,,,0.74,,2013-08-12 15:52:00,
2013-08-12 12:22:00,91.0,82.0,30.01,SSE,161,2.0,4.0,74,0.00,,,0.74,,2013-08-12 16:22:00,
2013-08-12 12:33:00,92.0,82.0,30.00,ENE,74,2.0,4.0,72,0.00,,,0.74,,2013-08-12 16:33:00,
2013-08-12 12:43:00,92.0,82.0,30.00,NW,318,2.0,4.0,72,0.00,,,0.74,,2013-08-12 16:43:00,
2013-08-12 12:53:00,93.0,83.0,30.00,ESE,122,1.0,6.0,72,0.00,,,0.74,,2013-08-12 16:53:00,
2013-08-12 13:43:00,93.0,81.0,29.99,NE,53,1.0,4.0,69,0.00,,,0.74,,2013-08-12 17:43:00,
2013-08-12 13:52:00,93.0,81.0,29.99,NE,53,1.0,4.0,69,0.00,,,0.74,,2013-08-12 17:52:00,
2013-08-12 14:02:00,92.0,81.0,29.99,NNE,29,2.0,6.0,70,0.00,,,0.74,,2013-08-12 18:02:00,
2013-08-12 14:11:00,92.0,81.0,29.99,North,356,2.0,6.0,71,0.00,,,0.74,,2013-08-12 18:11:00,
2013-08-12 14:43:00,88.0,81.0,29.98,SE,134,2.0,5.0,81,0.00,,,0.74,,2013-08-12 18:43:00,
2013-08-12 14:52:00,89.0,81.0,29.98,WNW,290,2.0,5.0,78,0.00,,,0.74,,2013-08-12 18:52:00,
2013-08-12 15:22:00,91.0,81.0,29.97,NNW,328,2.0,7.0,73,0.00,,,0.74,,2013-08-12 19:22:00,
2013-08-12 15:33:00,91.0,81.0,29.97,ESE,107,3.0,6.0,72,0.00,,,0.00,,2013-08-12 19:33:00,
2013-08-12 15:43:00,92.0,82.0,29.97,SSW,193,2.0,7.0,72,0.00,,,0.00,,2013-08-12 19:43:00,
2013-08-12 15:52:00,92.0,81.0,29.96,NE,42,2.0,8.0,71,0.00,,,0.00,,2013-08-12 19:52:00,
2013-08-12 16:02:00,91.0,81.0,29.96,SSE,167,3.0,7.0,72,0.00,,,0.00,,2013-08-12 20:02:00,
2013-08-12 16:22:00,89.0,80.0,29.96,SE,135,2.0,6.0,76,0.00,,,0.00,,2013-08-12 20:22:00,
2013-08-12 16:32:00,88.0,81.0,29.96,ESE,122,2.0,7.0,79,0.00,,,0.00,,2013-08-12 20:32:00,
2013-08-12 16:42:00,87.0,80.0,29.96,North,355,2.0,5.0,80,0.00,,,0.00,,2013-08-12 20:42:00,
2013-08-12 16:52:00,86.0,80.0,29.96,South,186,2.0,6.0,82,0.00,,,0.00,,2013-08-12 20:52:00,
2013-08-12 17:01:00,86.0,81.0,29.96,SSE,153,2.0,4.0,84,0.00,,,0.00,,2013-08-12 21:01:00,
2013-08-12 17:43:00,85.0,80.0,29.97,NNW,339,0.0,1.0,84,0.00,,,0.00,,2013-08-12 21:43:00,
2013-08-12 17:52:00,85.0,80.0,29.97,NE,53,0.0,2.0,84,0.00,,,0.00,,2013-08-12 21:52:00,
2013-08-12 18:22:00,85.0,80.0,29.96,NNW,338,1.0,4.0,85,0.00,,,0.00,,2013-08-12 22:22:00,
2013-08-12 18:32:00,85.0,80.0,29.96,NNW,347,0.0,2.0,86,0.00,,,0.00,,2013-08-12 22:32:00,
2013-08-12 18:43:00,86.0,81.0,29.96,SE,139,1.0,7.0,84,0.00,,,0.00,,2013-08-12 22:43:00,
2013-08-12 18:53:00,85.0,80.0,29.95,ESE,115,1.0,4.0,85,0.00,,,0.00,,2013-08-12 22:53:00,
2013-08-12 19:02:00,85.0,80.0,29.96,ESE,122,1.0,2.0,86,0.00,,,0.00,,2013-08-12 23:02:00,
2013-08-12 19:11:00,84.0,80.0,29.96,SE,133,0.0,3.0,87,0.00,,,0.00,,2013-08-12 23:11:00,
2013-08-12 19:22:00,84.0,80.0,29.96,SSE,150,0.0,3.0,87,0.00,,,0.00,,2013-08-12 23:22:00,
2013-08-12 19:54:00,83.0,79.0,29.95,ESE,118,0.0,5.0,87,0.00,,,0.00,,2013-08-12 23:54:00,
2013-08-12 20:24:00,81.0,77.0,29.96,ENE,70,0.0,0.0,87,0.00,,,0.00,,2013-08-13 00:24:00,
2013-08-12 20:54:00,81.0,77.0,29.97,ENE,70,0.0,1.0,88,0.00,,,0.00,,2013-08-13 00:54:00,
2013-08-12 21:23:00,80.0,76.0,29.97,SE,139,0.0,1.0,87,0.00,,,0.00,,2013-08-13 01:23:00,
2013-08-12 21:55:00,79.0,74.0,29.97,West,271,0.0,0.0,85,0.00,,,0.00,,2013-08-13 01:55:00,
2013-08-12 22:22:00,78.0,74.0,29.97,NNW,333,0.0,0.0,88,0.00,,,0.00,,2013-08-13 02:22:00,
2013-08-12 22:43:00,78.0,74.0,29.97,NNW,333,0.0,0.0,89,0.00,,,0.00,,2013-08-13 02:43:00,
2013-08-12 22:52:00,77.0,74.0,29.96,NNW,333,0.0,0.0,92,0.00,,,0.00,,2013-08-13 02:52:00,
2013-08-12 23:22:00,76.0,74.0,29.96,WNW,283,0.0,1.0,93,0.00,,,0.00,,2013-08-13 03:22:00,
2013-08-12 23:54:00,76.0,74.0,29.96,WNW,283,0.0,0.0,93,0.00,,,0.00,,2013-08-13 03:54:00,